Wetbulb
67.67 67.55 67.69 68.06 68.52 68.05 68.43 68.97 70.68 70.77 70.77 70.74 70.63 70.00 69.22 67.52 65.94 65.11 64.08 67.57 70.00 70.77 71.91 74.03 76.01 75.71 74.46 73.44 72.49 72.07 71.53 70.88 69.59 67.80 66.49 65.41 65.08 64.84 64.48 64.43 63.64 62.35 61.81
64.97 65.27 64.90 65.16 65.31 64.11 65.24 68.11 69.01 69.65 69.78 69.46 68.95 69.26 69.16 68.38 67.33 65.95 64.72 63.79 69.40 70.55 71.88 73.57 75.80 76.27 75.36 74.21 72.81 72.32 71.57 70.90 69.99 68.54 67.38 66.08 65.39 65.05 64.98 64.81 64.17 62.98 62.58
62.71 63.16 63.99 63.49 63.80 62.85 63.87 66.95 67.91 68.66 68.32 68.84 68.62 69.07 68.83 68.60 67.70 66.70 65.74 64.30 64.88 71.09 73.32 74.69 75.06 76.04 75.79 75.06 73.93 72.81 71.92 71.16 70.34 68.99 67.97 66.99 65.91 65.22 65.05 65.24 64.91 63.83 63.15
62.90 61.93 62.01 63.71 65.48 65.66 66.10 66.64 68.23 68.07 68.43 68.28 67.87 67.85 68.15 68.08 67.80 67.36 66.75 65.62 64.64 67.65 72.88 74.82 75.24 75.66 75.91 75.59 75.01 74.01 72.46 71.10 70.45 69.21 68.44 67.12 66.03 65.53 65.17 65.12 65.05 64.19 63.55
63.02 59.78 60.85 62.24 62.40 62.76 64.43 67.17 68.28 68.01 67.15 65.71 66.82 67.70 67.22 66.47 66.49 68.04 66.50 65.31 65.13 68.31 70.24 73.06 74.32 74.65 75.04 75.35 75.26 74.86 73.43 71.65 70.64 69.78 68.71 67.69 66.60 65.88 65.43 65.19 65.17 64.43 63.57
61.43 58.94 60.14 60.01 60.85 61.28 61.24 63.14 64.97 67.11 66.16 66.47 65.33 64.81 65.70 66.13 66.46 65.97 66.34 66.58 64.10 66.49 69.02 69.99 71.62 73.33 73.49 74.76 75.02 75.13 74.76 73.20 71.38 70.23 68.76 67.72 66.76 66.53 66.11 65.76 65.59 64.95 64.20
59.50 58.27 58.13 58.21 58.31 58.07 59.47 61.65 62.93 64.45 64.81 66.28 62.44 64.55 64.70 65.33 65.06 65.89 66.67 65.81 65.88 64.81 66.44 68.36 69.51 71.00 72.14 73.56 73.55 74.23 74.93 74.38 73.03 70.91 67.83 68.16 67.26 67.31 66.40 66.94 66.04 65.43 64.79
58.20 58.48 57.41 56.93 56.41 56.74 58.24 59.24 60.26 60.45 62.45 63.50 62.11 58.79 59.08 60.64 61.56 63.41 63.85 64.87 64.88 65.55 64.44 66.39 67.45 68.83 70.33 71.16 72.30 72.94 73.99 72.78 70.52 69.49 68.14 68.43 67.31 67.51 67.17 66.70 66.35 65.69 64.73
58.57 58.03 57.35 56.59 55.78 55.72 56.68 57.60 58.97 60.12 60.50 62.06 62.68 60.49 56.14 56.04 57.57 59.71 60.64 61.56 62.16 61.95 63.70 64.99 66.86 68.19 68.86 67.14 67.28 70.87 70.39 69.65 70.57 69.97 70.46 68.77 68.24 67.83 67.48 67.35 66.41 65.43 63.97
55.95 57.13 57.66 56.74 55.51 56.04 55.34 57.20 59.02 58.26 60.24 60.19 61.24 63.46 61.38 60.22 57.52 57.52 60.38 61.60 63.46 63.79 64.00 66.60 67.17 67.62 67.62 65.81 66.44 67.10 67.97 68.26 69.73 70.15 69.48 68.92 69.65 68.78 68.20 67.64 65.06 62.53 60.84
54.02 55.59 55.70 55.94 54.84 54.00 56.12 54.72 55.80 54.39 56.52 57.68 60.31 60.42 60.24 59.94 59.93 58.63 57.75 59.32 60.54 60.98 62.40 62.85 64.00 66.15 64.84 63.53 62.79 64.47 66.66 66.91 67.69 68.02 68.92 67.09 69.83 68.81 67.38 62.51 59.76 59.15 59.38
49.82 51.21 53.32 52.69 51.67 52.51 52.74 53.48 53.07 53.41 54.50 55.48 57.26 60.21 61.29 58.93 57.14 58.15 58.67 58.75 59.90 59.85 61.13 60.90 62.15 63.32 63.48 63.19 64.69 66.10 66.05 65.01 64.12 64.29 64.83 64.24 63.45 61.95 60.15 57.67 56.34 56.03 56.78
47.86 49.08 49.75 49.68 50.74 50.19 50.46 50.79 50.41 51.31 53.25 55.02 57.24 61.32 61.17 62.17 61.65 59.21 58.01 58.66 56.86 59.09 61.01 62.55 64.59 63.70 63.04 62.05 62.82 64.16 64.06 61.93 60.77 60.37 60.43 59.82 58.65 57.02 55.72 55.16 54.79 54.23 54.99
47.44 48.47 49.42 50.26 50.45 51.56 50.24 49.92 51.16 53.86 55.16 54.67 57.75 57.99 59.62 60.97 61.49 59.86 58.95 57.06 55.38 55.55 59.18 60.24 60.58 61.75 61.73 61.17 62.29 63.07 60.14 59.22 58.04 57.22 56.93 56.78 56.82 55.33 54.70 54.25 53.07 52.64 53.19
47.31 48.08 48.00 48.67 48.95 49.29 49.27 49.32 50.66 50.42 50.52 51.90 53.60 56.66 57.36 59.17 60.44 61.69 60.46 59.41 59.03 54.43 53.25 57.87 59.88 60.22 60.67 60.62 61.22 56.30 56.09 58.42 57.10 56.06 55.56 55.25 55.48 55.26 54.30 53.43 52.51 51.75 52.54
45.55 45.82 45.82 46.84 48.63 49.96 50.00 49.94 50.57 51.10 51.07 50.65 52.45 54.05 56.34 59.63 59.57 60.62 60.81 60.26 60.76 58.39 54.22 56.76 57.22 56.78 57.89 58.35 60.68 54.87 55.04 57.70 57.00 56.79 55.89 55.29 54.92 54.95 54.71 53.90 52.68 52.07 52.50
45.45 45.73 46.37 47.27 47.85 48.50 49.66 49.95 50.29 51.34 51.33 51.96 53.01 54.40 54.73 56.42 58.43 59.48 59.58 59.58 60.06 58.97 56.92 53.38 55.18 55.10 54.64 55.60 54.26 52.99 54.47 51.96 52.28 54.26 55.47 56.20 54.99 54.46 54.37 54.07 53.02 52.32 52.44
45.18 45.66 46.24 46.77 47.68 48.33 49.31 49.61 50.30 51.46 51.91 53.16 54.09 53.17 55.11 58.44 57.49 59.49 59.34 57.89 57.55 56.06 52.79 48.07 52.38 52.37 53.22 53.54 51.90 50.89 51.50 52.55 51.17 53.23 54.62 55.30 55.12 54.56 53.87 53.46 52.69 52.32 52.22
45.31 45.84 46.22 46.49 47.43 48.59 49.31 49.83 50.51 51.47 51.87 52.21 53.07 54.59 55.15 56.08 55.42 57.04 56.10 56.68 55.39 54.61 51.92 49.97 50.86 52.35 51.83 51.56 49.40 49.30 49.92 50.09 51.69 54.15 54.55 54.93 55.04 54.87 54.17 52.84 51.91 51.31 50.38
44.98 45.50 46.37 47.08 47.97 48.51 49.48 50.24 50.81 51.40 52.18 53.12 53.94 54.48 54.26 54.47 55.84 56.24 55.03 53.89 53.28 52.56 50.89 50.13 49.43 49.41 48.90 49.25 49.25 47.65 47.90 49.58 48.42 51.34 51.80 52.40 53.21 53.56 53.70 53.07 52.40 51.68 49.96
44.01 44.74 45.03 46.06 47.74 50.12 50.09 50.36 51.43 51.46 52.57 53.06 54.02 54.35 54.88 56.58 58.10 56.08 54.09 52.90 51.53 49.92 49.16 49.36 48.27 47.39 47.08 47.59 46.65 47.64 47.15 47.93 47.83 47.11 46.03 46.91 47.95 46.71 48.47 53.42 52.80 52.90 50.98
42.75 43.16 43.50 44.46 44.76 46.17 45.50 47.44 52.01 52.07 53.18 51.88 50.08 50.07 51.37 52.75 52.62 52.30 52.29 52.08 51.65 49.96 48.38 46.83 46.81 46.29 46.63 46.50 46.56 45.57 45.75 43.19 42.27 45.44 45.48 45.08 45.07 43.81 45.63 47.65 50.26 50.72 50.26
41.87 41.68 42.33 43.05 43.03 44.20 45.28 46.79 49.59 48.94 47.42 47.10 47.26 47.91 48.32 49.83 50.16 49.61 50.33 50.69 50.74 50.62 50.15 48.27 46.60 45.88 44.54 46.13 45.57 42.96 41.02 40.73 40.83 43.39 44.20 42.20 42.86 42.47 43.86 45.28 47.43 46.72 46.11
41.14 41.18 41.48 42.22 42.50 43.69 44.06 44.45 45.68 45.62 45.04 44.83 45.42 45.82 46.31 46.06 46.69 47.07 46.90 46.39 46.19 46.39 45.99 47.11 46.96 45.84 45.02 44.00 44.64 43.32 42.44 40.58 41.51 44.87 43.45 40.46 41.59 40.04 42.02 42.21 46.48 46.15 45.77
41.24 41.24 41.71 41.61 41.45 41.68 42.97 43.53 44.79 44.78 44.10 44.07 44.80 45.06 44.71 44.58 44.35 44.97 46.09 45.18 45.22 45.50 46.56 46.12 45.07 43.86 43.19 43.83 43.98 42.76 40.90 39.86 38.07 42.45 45.23 43.39 43.25 38.95 39.13 41.33 43.27 46.75 45.77
41.25 41.82 41.35 41.84 43.10 41.78 41.89 41.91 44.79 44.95 44.10 44.43 44.51 43.64 43.65 44.25 43.32 43.85 45.04 44.55 43.12 42.91 44.24 43.83 43.55 42.79 43.62 44.41 46.47 46.19 43.97 42.29 42.13 41.93 45.07 42.56 42.60 41.66 39.29 40.40 42.95 43.93 44.38
MSLP
1012.07 1011.67 1011.52 1011.24 1010.96 1010.83 1010.69 1010.60 1010.41 1010.18 1010.05 1009.82 1009.78 1009.97 1009.94 1009.79 1009.64 1009.44 1009.35 1009.35 1009.33 1009.15 1009.13 1009.13 1009.25 1009.62 1010.01 1010.29 1010.70 1010.98 1011.44 1011.92 1012.51 1012.85 1013.07 1013.28 1013.57 1013.67 1013.93 1014.21 1014.44 1014.61 1014.87
1012.05 1011.84 1011.55 1011.22 1010.82 1010.67 1010.34 1010.13 1009.96 1009.75 1009.59 1009.57 1009.51 1009.65 1009.15 1009.04 1008.81 1008.70 1008.70 1008.55 1008.53 1008.43 1008.37 1008.35 1008.50 1008.81 1009.28 1009.59 1010.00 1010.30 1010.85 1011.43 1012.04 1012.61 1012.79 1012.79 1013.16 1013.42 1013.72 1014.08 1014.41 1014.41 1014.44
1011.97 1011.86 1011.64 1011.27 1010.95 1010.50 1010.15 1009.72 1009.45 1009.24 1009.25 1009.16 1008.97 1008.81 1008.65 1008.35 1008.45 1008.09 1008.02 1007.93 1007.87 1007.73 1007.65 1007.68 1007.79 1008.15 1008.62 1008.84 1009.12 1009.55 1010.07 1010.62 1011.30 1011.71 1012.15 1012.44 1012.64 1012.86 1013.01 1013.28 1013.60 1014.05 1014.21
1011.99 1011.83 1011.58 1011.25 1010.79 1010.45 1009.97 1009.67 1009.21 1008.88 1008.76 1008.67 1008.43 1008.36 1008.05 1007.80 1007.71 1007.52 1007.37 1007.33 1007.31 1007.15 1007.10 1007.09 1007.18 1007.27 1007.99 1008.21 1008.37 1008.75 1009.20 1009.85 1010.54 1010.89 1011.49 1011.84 1012.49 1012.79 1012.87 1013.04 1013.33 1013.55 1013.68
1011.88 1011.77 1011.59 1011.24 1010.81 1010.57 1010.17 1009.71 1009.06 1008.81 1008.32 1008.15 1008.10 1007.79 1007.73 1007.58 1007.29 1007.09 1007.01 1006.97 1006.69 1006.65 1006.62 1006.63 1006.70 1007.06 1007.63 1007.61 1007.56 1007.89 1008.42 1008.94 1009.18 1009.65 1010.45 1010.75 1011.43 1012.13 1012.42 1012.69 1012.90 1013.08 1013.38
1011.66 1011.58 1011.37 1011.13 1010.76 1010.53 1010.09 1009.65 1009.24 1008.59 1008.22 1007.60 1007.21 1007.17 1007.02 1007.00 1006.81 1006.69 1006.62 1006.57 1006.35 1006.21 1006.15 1006.21 1006.23 1006.54 1006.53 1006.70 1007.02 1007.30 1007.70 1008.01 1008.68 1009.74 1010.76 1011.13 1010.53 1011.67 1011.99 1011.97 1012.30 1012.35 1012.69
1011.46 1011.33 1011.19 1010.86 1010.51 1010.33 1010.04 1009.65 1009.11 1008.56 1007.82 1007.41 1007.50 1007.02 1006.72 1006.39 1006.39 1006.11 1005.97 1005.99 1006.06 1005.82 1005.73 1005.84 1005.97 1005.97 1006.01 1006.11 1006.31 1006.92 1007.11 1007.20 1008.01 1007.08 1009.79 1009.76 1009.56 1010.81 1011.78 1011.87 1011.70 1011.84 1012.09
1011.17 1011.03 1010.78 1010.47 1010.21 1009.96 1009.65 1009.39 1009.07 1008.58 1007.67 1007.25 1007.46 1007.04 1006.74 1006.13 1005.91 1005.55 1005.58 1005.61 1005.40 1005.35 1005.38 1005.34 1005.34 1005.33 1005.36 1005.46 1005.59 1005.82 1006.33 1006.77 1007.56 1007.66 1007.96 1008.05 1008.36 1009.45 1010.48 1011.01 1011.01 1011.22 1011.53
1011.18 1010.81 1010.49 1010.16 1009.75 1009.57 1009.31 1009.01 1008.78 1008.40 1007.73 1006.91 1006.73 1007.03 1006.75 1006.40 1006.10 1005.38 1005.26 1005.29 1005.23 1005.17 1005.17 1005.02 1005.01 1004.99 1005.14 1005.25 1005.36 1005.30 1005.77 1006.04 1006.29 1006.81 1007.05 1007.17 1007.60 1008.36 1008.98 1009.62 1010.23 1010.87 1011.09
1010.76 1010.22 1009.89 1009.64 1009.34 1009.05 1008.69 1008.47 1008.19 1008.04 1007.80 1007.04 1006.49 1005.98 1005.92 1005.62 1006.11 1005.63 1005.05 1004.90 1005.00 1005.06 1005.00 1004.95 1004.91 1004.84 1004.72 1004.82 1005.01 1005.10 1005.45 1005.64 1005.73 1005.97 1006.46 1006.60 1006.19 1007.37 1007.87 1008.87 1009.77 1010.54 1010.85
1010.16 1009.66 1009.27 1008.92 1008.63 1008.48 1008.19 1007.88 1007.74 1007.65 1007.43 1007.19 1006.65 1006.09 1005.61 1005.40 1005.43 1005.81 1005.24 1004.87 1004.88 1004.90 1004.82 1004.77 1004.70 1004.73 1004.70 1004.81 1005.05 1005.25 1005.49 1005.35 1005.76 1006.09 1006.28 1006.46 1006.03 1006.85 1007.76 1009.05 1009.81 1010.41 1010.59
1009.41 1008.94 1008.52 1008.17 1007.88 1007.71 1007.53 1007.29 1007.07 1006.95 1006.80 1006.52 1006.20 1005.86 1005.34 1005.06 1004.80 1004.93 1005.19 1005.01 1004.99 1004.78 1004.80 1004.74 1004.69 1004.51 1004.61 1004.81 1005.00 1005.09 1005.38 1005.56 1005.81 1006.07 1006.50 1006.91 1007.39 1007.80 1008.74 1009.31 1009.85 1010.05 1010.23
1008.96 1008.41 1008.00 1007.53 1007.16 1007.02 1006.88 1006.77 1006.45 1006.22 1006.00 1005.67 1005.31 1004.83 1004.69 1004.39 1004.11 1004.12 1004.39 1004.66 1004.79 1004.65 1004.61 1004.46 1004.28 1004.30 1004.54 1004.78 1004.97 1005.16 1005.49 1006.01 1006.39 1006.61 1007.13 1007.43 1007.85 1008.34 1008.89 1009.33 1009.73 1009.73 1009.78
1008.59 1008.01 1007.41 1006.81 1006.33 1006.14 1006.16 1006.09 1005.80 1005.40 1005.08 1004.85 1004.56 1004.12 1004.08 1003.87 1003.71 1003.62 1003.71 1004.28 1004.53 1004.46 1004.33 1004.07 1003.92 1004.07 1004.35 1004.74 1004.96 1005.23 1005.84 1006.35 1006.77 1007.19 1007.59 1007.89 1008.29 1008.65 1008.93 1009.20 1009.46 1009.62 1009.71
1008.12 1007.51 1007.18 1006.59 1005.80 1005.45 1005.33 1005.25 1004.83 1004.57 1004.47 1004.32 1004.15 1003.81 1003.53 1003.28 1003.16 1003.13 1003.16 1003.29 1003.67 1003.97 1003.89 1003.77 1003.86 1003.95 1004.33 1004.69 1005.03 1005.53 1006.07 1006.49 1007.02 1007.30 1007.63 1007.91 1008.20 1008.49 1008.85 1009.24 1009.57 1009.71 1010.10
1007.76 1007.08 1006.56 1005.96 1005.18 1004.64 1004.34 1004.30 1003.92 1003.60 1003.56 1003.61 1003.46 1003.26 1002.95 1002.72 1002.53 1002.49 1002.63 1002.69 1002.87 1003.17 1003.49 1003.45 1003.84 1004.15 1004.43 1004.67 1005.01 1005.64 1006.04 1006.37 1006.79 1007.12 1007.52 1007.76 1007.87 1008.29 1008.55 1009.07 1009.30 1009.57 1009.96
1007.09 1006.36 1005.66 1004.99 1004.42 1003.95 1003.58 1003.38 1003.13 1002.95 1002.87 1002.73 1002.59 1002.40 1002.21 1002.22 1002.10 1002.05 1002.04 1002.15 1002.29 1002.56 1003.05 1003.69 1003.83 1004.26 1004.64 1004.85 1005.23 1005.71 1005.98 1006.50 1006.79 1006.90 1007.05 1007.37 1007.53 1007.43 1007.79 1008.15 1008.59 1009.17 1009.57
1006.33 1005.65 1004.88 1004.20 1003.62 1003.09 1002.73 1002.51 1002.27 1002.14 1002.05 1001.82 1001.77 1001.78 1001.64 1001.54 1001.47 1001.50 1001.51 1001.59 1001.81 1002.01 1002.75 1003.52 1003.88 1004.30 1004.66 1005.01 1005.36 1005.83 1006.19 1006.45 1006.73 1006.69 1006.78 1007.07 1007.15 1007.06 1007.48 1007.87 1008.19 1008.67 1009.11
1005.68 1004.84 1004.11 1003.35 1002.70 1002.13 1001.75 1001.49 1001.37 1001.28 1001.33 1001.33 1001.31 1001.25 1001.08 1001.10 1001.09 1001.00 1001.00 1001.21 1001.42 1001.78 1002.27 1002.75 1003.66 1004.31 1004.89 1005.28 1005.73 1005.93 1006.47 1006.67 1006.77 1006.64 1006.47 1006.52 1006.75 1006.97 1007.22 1007.41 1007.91 1008.39 1008.76
1005.32 1004.35 1003.49 1002.62 1001.83 1001.12 1000.68 1000.40 1000.38 1000.53 1000.67 1000.77 1000.76 1000.72 1000.60 1000.48 1000.35 1000.31 1000.58 1000.90 1001.31 1001.95 1002.40 1002.75 1003.65 1004.52 1005.12 1005.70 1005.68 1006.21 1006.70 1006.68 1006.91 1006.83 1006.64 1006.59 1006.83 1007.13 1007.23 1007.09 1007.50 1007.93 1008.31
1005.31 1004.31 1003.28 1002.25 1001.25 999.93 999.64 999.44 999.51 999.90 1000.14 1000.32 1000.30 1000.16 1000.03 999.83 999.56 999.73 1000.18 1000.77 1001.34 1002.00 1002.53 1003.15 1003.75 1004.31 1004.96 1005.86 1006.32 1006.55 1006.79 1007.07 1007.28 1007.17 1007.19 1007.19 1007.18 1007.33 1007.16 1006.97 1007.26 1007.55 1007.98
1005.54 1004.45 1003.45 1002.48 1001.53 1000.56 999.91 999.25 999.09 999.51 999.86 1000.08 1000.34 1000.40 1000.31 1000.22 1000.07 1000.15 1000.48 1001.03 1001.53 1001.85 1002.52 1003.24 1003.91 1004.43 1005.31 1006.15 1006.58 1006.78 1007.13 1007.57 1007.71 1007.55 1007.68 1007.67 1007.57 1007.72 1007.62 1007.47 1007.51 1007.53 1007.81
1005.91 1004.97 1003.93 1003.04 1002.07 1001.01 998.87 998.73 999.29 999.65 1000.18 1000.65 1000.92 1000.97 1000.98 1000.93 1000.82 1000.93 1001.46 1001.93 1002.33 1002.69 1002.90 1003.30 1004.11 1004.58 1005.59 1006.10 1006.38 1006.95 1007.45 1007.78 1007.83 1007.66 1007.75 1008.06 1007.99 1007.97 1007.81 1007.81 1007.75 1007.78 1008.02
1006.43 1005.62 1004.76 1003.92 1003.04 1001.89 1000.91 1000.35 1000.35 1000.77 1001.07 1001.49 1001.78 1001.82 1001.77 1001.79 1002.01 1001.97 1002.33 1002.84 1003.29 1003.73 1004.02 1004.37 1004.73 1005.42 1005.79 1006.18 1006.44 1006.85 1007.43 1007.87 1007.92 1007.67 1007.79 1008.22 1008.22 1008.11 1008.03 1008.01 1007.84 1007.92 1008.13
1007.16 1006.40 1005.73 1004.96 1004.16 1003.43 1002.49 1001.87 1001.77 1001.95 1002.22 1002.59 1002.77 1002.92 1002.90 1002.80 1003.07 1003.09 1003.21 1003.83 1004.42 1004.94 1005.11 1005.21 1005.57 1005.90 1006.33 1006.75 1006.83 1007.05 1007.79 1008.06 1008.15 1007.96 1007.85 1007.82 1008.05 1008.21 1008.17 1008.00 1007.89 1007.89 1007.95
1008.10 1007.39 1006.65 1005.91 1005.35 1004.66 1003.98 1003.53 1003.29 1003.38 1003.44 1003.71 1004.04 1004.13 1004.15 1004.01 1004.11 1004.18 1004.36 1004.80 1005.22 1005.79 1005.95 1006.38 1006.70 1006.94 1007.04 1007.15 1007.00 1007.06 1007.43 1007.69 1007.85 1007.92 1007.84 1007.97 1008.03 1008.16 1008.12 1007.82 1007.71 1007.53 1007.42
Wind_Speed
5 4 5 5 5 4 5 5 7 7 8 9 8 9 10 10 10 6 5 16 18 19 20 21 24 25 25 24 23 22 22 21 20 19 17 16 16 15 13 11 9 7 6
5 4 5 6 7 6 5 6 8 9 9 5 7 10 11 10 10 9 7 7 16 18 19 20 23 25 26 25 24 23 22 21 21 19 18 19 17 16 14 12 11 9 8
6 5 4 4 6 6 8 7 8 6 5 6 10 9 9 10 9 9 8 6 6 14 18 18 22 24 25 26 25 25 24 23 22 21 20 19 19 18 17 15 14 11 10
6 5 5 5 6 7 7 6 6 7 8 7 8 8 7 6 8 9 8 7 6 6 10 17 20 23 25 26 26 26 26 24 23 23 21 20 19 19 18 16 15 13 12
4 5 4 5 6 5 6 6 8 7 7 6 6 7 6 5 6 7 8 7 8 8 5 11 19 23 23 26 27 27 26 26 27 26 24 24 21 21 20 19 18 16 13
5 4 4 5 4 5 6 6 8 6 7 10 7 7 5 6 4 5 8 7 5 7 7 7 7 11 19 22 25 27 26 27 26 22 17 21 16 22 21 21 20 17 17
6 5 4 5 5 4 6 7 7 7 5 6 3 6 5 7 7 7 7 5 6 6 6 8 6 6 8 25 26 23 25 26 25 27 17 24 21 20 24 21 20 19 17
6 6 6 5 6 5 5 5 5 5 4 4 4 1 4 5 4 6 4 6 8 3 6 7 7 9 8 7 13 23 21 18 15 18 25 20 26 26 25 25 22 19 17
7 7 7 6 7 5 5 5 5 5 6 4 6 4 1 5 3 1 3 3 3 2 4 5 7 6 6 3 5 11 18 17 19 21 21 23 28 28 28 27 19 16 13
11 11 10 7 7 5 6 5 4 3 5 8 3 5 6 3 4 7 2 1 2 2 3 3 4 5 5 6 10 11 11 13 18 19 19 16 21 32 25 21 13 10 9
10 11 12 10 6 5 7 6 5 5 4 6 6 4 4 4 4 5 9 3 2 1 3 3 4 4 4 4 4 6 11 9 12 15 13 12 16 26 14 9 5 8 11
9 10 10 8 8 7 7 6 6 7 7 7 6 8 7 4 4 4 6 5 4 4 3 3 4 4 2 2 4 8 6 4 7 13 13 14 13 13 9 7 7 8 10
10 11 9 9 8 7 6 9 10 9 10 8 8 6 5 6 4 3 3 4 4 3 3 3 4 3 1 1 1 5 12 13 12 13 11 11 12 12 10 8 5 2 4
10 12 12 15 15 10 9 11 8 8 7 7 10 5 5 4 4 4 4 4 3 4 3 5 3 3 3 3 3 9 7 13 13 12 12 12 11 10 9 6 3 2 2
12 13 14 16 17 16 12 12 10 10 7 8 9 7 5 5 4 5 4 4 6 4 5 5 4 3 3 3 3 5 5 12 12 10 9 9 8 7 6 5 3 2 4
15 15 14 15 15 13 11 12 10 11 8 8 8 10 8 6 5 4 5 5 5 5 4 2 2 2 2 4 7 5 5 8 6 8 9 9 10 10 10 9 6 6 7
15 15 15 15 14 14 13 12 12 12 11 10 10 9 8 7 6 4 4 4 6 6 6 0 2 2 3 6 5 4 5 4 3 4 7 9 11 12 12 11 9 8 9
15 16 15 15 15 15 13 13 13 11 11 10 10 8 11 6 7 7 5 6 5 5 4 4 2 2 3 4 5 5 3 2 1 4 8 7 7 9 10 11 9 9 9
15 15 14 15 14 14 14 13 13 12 11 10 9 8 7 5 7 5 5 4 3 3 3 4 4 2 3 3 4 4 3 2 1 5 3 4 4 6 10 10 10 11 10
14 13 12 13 14 14 14 13 12 11 11 10 7 7 9 10 10 7 4 6 5 5 3 6 5 4 3 2 3 3 3 3 3 4 5 6 4 3 8 9 11 12 11
12 12 12 11 12 9 9 11 11 10 8 6 6 5 6 10 11 9 7 7 8 4 6 7 5 5 5 2 3 2 2 2 0 2 2 3 2 3 4 2 6 10 10
13 12 12 12 11 9 19 10 8 6 5 5 4 4 6 9 12 15 15 12 7 7 8 4 5 8 4 3 2 2 2 1 1 2 1 2 2 2 2 3 4 3 7
13 13 13 12 13 15 22 9 10 6 8 7 5 5 7 7 11 13 18 17 15 13 9 6 10 5 4 4 4 3 2 2 1 1 2 1 2 2 1 1 5 7 5
12 12 13 13 13 14 24 19 19 12 11 11 10 9 9 10 9 11 12 13 12 11 9 7 8 6 5 5 4 4 3 3 1 2 2 2 1 1 1 2 5 5 1
11 12 11 13 13 15 25 21 15 12 14 13 11 11 10 11 13 12 13 13 11 9 11 14 13 13 11 9 6 4 2 3 1 1 3 1 1 2 1 2 4 7 5
11 10 12 14 20 16 26 28 14 9 12 10 10 10 18 11 13 11 10 9 10 5 7 6 5 6 5 4 7 4 2 2 1 1 2 3 2 3 3 1 0 1 2
Wind_Direction
296 288 285 276 274 264 252 259 253 249 242 236 236 236 243 240 243 240 245 249 240 239 242 237 224 219 216 212 213 214 215 215 216 216 209 205 207 205 210 215 222 227 239
312 299 290 290 288 282 272 255 253 253 245 234 234 243 240 240 238 235 239 242 242 240 242 239 227 220 219 214 214 215 216 215 216 218 213 210 210 210 212 217 226 229 231
337 326 312 296 289 287 279 267 253 246 243 237 237 235 239 239 241 241 236 241 246 245 245 232 226 222 220 217 215 216 216 214 214 215 213 213 213 210 210 213 218 229 234
343 352 340 333 331 318 307 285 272 255 248 234 243 243 245 236 240 242 248 240 239 244 245 231 222 218 221 221 219 218 217 214 215 218 217 213 220 218 215 216 221 226 231
330 342 320 319 325 319 321 300 293 256 250 237 239 247 243 249 243 254 245 235 230 230 220 231 227 222 226 226 222 222 219 216 214 209 217 212 214 222 219 217 220 220 226
307 323 305 302 307 314 316 319 311 290 254 264 250 255 241 246 240 236 251 249 223 225 224 223 223 237 235 226 231 229 224 224 221 218 227 228 211 242 229 222 221 219 224
285 292 283 297 304 302 294 302 302 299 295 258 243 244 245 233 237 243 241 241 245 226 212 224 222 221 232 235 237 236 233 232 229 205 230 214 205 229 239 233 224 223 229
295 289 286 279 279 289 292 289 298 296 264 238 264 184 289 277 238 230 219 234 238 235 226 220 218 220 227 228 227 223 231 220 195 224 235 204 205 211 228 237 228 223 231
294 276 261 263 274 257 260 269 276 275 285 282 212 216 205 232 334 242 240 248 276 257 253 246 232 228 222 196 239 210 201 211 226 219 234 220 211 217 215 227 216 221 227
291 286 277 254 244 259 267 237 260 265 299 300 295 219 251 183 208 293 269 176 150 187 209 249 244 231 195 197 204 212 219 218 223 235 231 252 197 213 215 211 202 218 244
270 272 276 273 256 246 262 265 251 248 243 268 287 296 244 229 229 198 275 258 25 273 238 238 247 248 220 226 216 232 242 253 235 240 231 241 252 213 176 157 189 234 247
287 273 264 266 271 264 257 253 255 255 250 248 247 259 245 221 200 187 225 261 218 237 233 246 250 250 269 265 251 239 221 131 124 117 125 117 115 118 139 169 209 239 258
288 284 268 264 264 265 259 274 271 259 257 248 241 239 238 241 230 196 194 236 228 213 215 230 225 227 252 77 102 120 114 113 109 105 119 133 138 142 153 167 189 235 268
284 286 284 285 280 265 277 273 266 261 260 279 272 231 247 241 224 212 192 177 250 228 206 232 205 176 143 118 127 114 125 132 132 138 144 143 147 150 156 155 166 225 252
299 293 298 294 281 274 264 261 260 248 245 255 264 258 245 247 229 230 216 190 201 233 230 207 205 146 131 126 138 118 133 145 141 142 145 143 150 153 163 174 188 221 241
290 289 283 279 277 275 263 259 262 265 241 248 251 252 250 242 238 222 220 212 209 221 241 143 146 115 115 117 145 123 134 129 129 146 168 181 181 185 183 184 191 210 227
294 288 283 278 278 276 268 261 257 258 254 247 236 232 249 246 251 235 214 214 214 198 225 110 100 125 107 137 115 131 132 127 134 183 217 220 212 198 189 183 186 206 219
295 290 285 279 274 269 263 257 254 252 256 255 239 236 242 234 233 236 225 222 216 189 150 152 118 118 108 125 112 113 93 88 228 238 249 243 235 211 200 196 181 197 212
298 292 286 278 273 267 259 250 249 245 244 245 247 256 262 251 258 245 216 213 185 168 185 149 126 111 103 130 121 88 83 61 19 13 59 36 268 222 207 188 193 205 209
310 307 298 288 278 268 258 250 239 240 233 237 234 240 247 243 242 230 184 158 137 128 128 112 96 95 84 91 103 124 95 56 18 4 14 24 357 277 227 206 205 206 207
328 324 322 320 320 283 252 240 227 225 227 220 225 241 252 251 234 175 157 149 136 125 125 128 125 129 125 80 98 125 104 86 345 44 14 15 72 47 25 146 202 216 203
341 340 346 347 349 347 327 288 194 199 194 163 118 70 59 78 92 91 92 85 88 136 137 121 123 127 92 108 115 103 92 92 156 44 49 33 51 43 39 55 78 123 162
347 354 360 1 8 4 355 152 106 82 92 79 73 85 84 70 82 90 83 84 77 71 65 115 128 105 113 151 129 105 121 124 189 318 117 162 3 350 356 98 133 122 133
0 5 5 11 20 21 30 54 76 79 74 64 57 52 73 70 62 88 90 79 68 60 57 70 81 97 104 123 118 129 147 132 1 16 118 181 195 264 293 231 185 153 168
10 16 14 18 27 30 37 42 62 69 70 64 61 52 54 69 62 69 87 90 83 71 57 70 82 82 82 78 100 100 75 110 18 249 16 55 105 287 266 238 222 236 287
18 20 25 26 30 38 37 37 45 65 72 66 56 48 42 61 73 73 86 94 90 76 95 85 67 60 79 89 79 81 162 133 152 106 4 24 9 1 331 196 234 233 306